TimeCDT,TemperatureF,Dew PointF,Humidity,Sea Level PressureIn,VisibilityMPH,Wind Direction,Wind SpeedMPH,Gust SpeedMPH,PrecipitationIn,Events,Conditions,WindDirDegrees,DateUTC
12:13 AM,28.4,24.8,86,30.43,10.0,NNE,3.5,-,N/A,,Clear,30,2013-10-29 05:13:00
12:33 AM,28.4,24.8,86,30.43,10.0,NNE,3.5,-,N/A,,Clear,20,2013-10-29 05:33:00
12:53 AM,28.4,24.8,86,30.43,10.0,NNE,3.5,-,N/A,,Clear,30,2013-10-29 05:53:00
1:13 AM,28.4,24.8,86,30.42,10.0,NNE,3.5,-,N/A,,Clear,30,2013-10-29 06:13:00
1:33 AM,28.4,26.6,93,30.41,10.0,NNE,4.6,-,N/A,,Clear,30,2013-10-29 06:33:00
1:53 AM,30.2,26.6,86,30.41,10.0,NNE,4.6,-,N/A,,Clear,30,2013-10-29 06:53:00
2:13 AM,30.2,26.6,86,30.41,10.0,NE,4.6,-,N/A,,Clear,40,2013-10-29 07:13:00
2:33 AM,30.2,24.8,80,30.42,10.0,NNE,4.6,-,N/A,,Clear,30,2013-10-29 07:33:00
2:54 AM,30.2,26.6,86,30.41,10.0,NE,3.5,-,N/A,,Mostly Cloudy,50,2013-10-29 07:54:00
3:13 AM,30.2,26.6,86,30.41,10.0,NNE,3.5,-,N/A,,Scattered Clouds,30,2013-10-29 08:13:00
3:33 AM,30.2,26.6,86,30.41,10.0,NNE,3.5,-,N/A,,Scattered Clouds,30,2013-10-29 08:33:00
3:54 AM,30.2,26.6,86,30.41,10.0,NNE,5.8,-,N/A,,Mostly Cloudy,20,2013-10-29 08:54:00
4:13 AM,30.2,26.6,86,30.41,10.0,NE,3.5,-,N/A,,Overcast,40,2013-10-29 09:13:00
4:33 AM,30.2,26.6,86,30.41,10.0,NNE,4.6,-,N/A,,Overcast,20,2013-10-29 09:33:00
4:54 AM,30.2,26.6,86,30.40,10.0,Calm,Calm,-,N/A,,Overcast,0,2013-10-29 09:54:00
5:13 AM,30.2,26.6,86,30.40,10.0,NE,3.5,-,N/A,,Overcast,50,2013-10-29 10:13:00
5:33 AM,30.2,26.6,86,30.39,10.0,NE,4.6,-,N/A,,Overcast,40,2013-10-29 10:33:00
5:53 AM,30.2,26.6,86,30.38,10.0,ENE,3.5,-,N/A,,Overcast,60,2013-10-29 10:53:00
6:13 AM,30.2,26.6,86,30.37,10.0,ENE,5.8,-,N/A,,Overcast,70,2013-10-29 11:13:00
6:33 AM,30.2,26.6,86,30.35,10.0,East,3.5,-,N/A,,Overcast,80,2013-10-29 11:33:00
6:53 AM,32.0,26.6,80,30.34,10.0,ENE,4.6,-,N/A,,Overcast,70,2013-10-29 11:53:00
7:13 AM,32.0,24.8,75,30.32,10.0,East,4.6,-,N/A,,Overcast,90,2013-10-29 12:13:00
7:33 AM,32.0,24.8,75,30.32,10.0,Calm,Calm,-,N/A,,Overcast,0,2013-10-29 12:33:00
7:53 AM,32.0,24.8,75,30.32,10.0,Calm,Calm,-,N/A,,Overcast,0,2013-10-29 12:53:00
8:13 AM,33.8,24.8,70,30.32,10.0,Calm,Calm,-,N/A,,Overcast,0,2013-10-29 13:13:00
8:33 AM,33.8,24.8,70,30.32,10.0,ENE,3.5,-,N/A,,Overcast,60,2013-10-29 13:33:00
8:53 AM,33.8,26.6,75,30.32,10.0,Calm,Calm,-,N/A,,Overcast,0,2013-10-29 13:53:00
9:13 AM,33.8,26.6,75,30.33,10.0,ENE,3.5,-,N/A,,Overcast,60,2013-10-29 14:13:00
9:33 AM,33.8,26.6,75,30.33,10.0,Calm,Calm,-,N/A,,Overcast,0,2013-10-29 14:33:00
9:53 AM,33.8,24.8,70,30.33,10.0,ENE,3.5,-,N/A,,Overcast,70,2013-10-29 14:53:00
10:13 AM,35.6,24.8,65,30.32,10.0,East,4.6,-,N/A,,Overcast,80,2013-10-29 15:13:00
10:33 AM,35.6,26.6,70,30.31,10.0,ENE,4.6,-,N/A,,Mostly Cloudy,60,2013-10-29 15:33:00
10:53 AM,35.6,26.6,70,30.31,7.0,NE,3.5,-,N/A,Snow,Light Snow,50,2013-10-29 15:53:00
11:13 AM,35.6,26.6,70,30.31,5.0,NE,5.8,-,N/A,Snow,Light Snow,50,2013-10-29 16:13:00
11:33 AM,35.6,28.4,75,30.31,5.0,NNE,4.6,-,N/A,Snow,Light Snow,30,2013-10-29 16:33:00
11:53 AM,35.6,26.6,70,30.30,7.0,NE,8.1,-,N/A,Snow,Light Snow,40,2013-10-29 16:53:00
12:13 PM,35.6,26.6,70,30.30,10.0,NNE,6.9,-,N/A,,Mostly Cloudy,20,2013-10-29 17:13:00
12:33 PM,35.6,26.6,70,30.29,10.0,NE,5.8,-,N/A,,Overcast,40,2013-10-29 17:33:00
12:53 PM,35.6,28.4,75,30.28,5.0,NE,9.2,-,N/A,Snow,Light Snow,40,2013-10-29 17:53:00
1:13 PM,33.8,28.4,81,30.27,7.0,NNE,9.2,-,N/A,Snow,Light Snow,30,2013-10-29 18:13:00
1:33 PM,33.8,30.2,87,30.25,10.0,NE,8.1,-,N/A,Rain,Light Rain,50,2013-10-29 18:33:00
1:53 PM,33.8,30.2,87,30.24,10.0,NE,8.1,-,N/A,Rain,Rain,40,2013-10-29 18:53:00
2:13 PM,33.8,30.2,87,30.23,7.0,NNE,8.1,-,0.01,Rain,Light Rain,20,2013-10-29 19:13:00
2:33 PM,33.8,30.2,87,30.22,7.0,NE,6.9,-,0.01,Rain,Light Rain,50,2013-10-29 19:33:00
2:53 PM,35.6,32.0,87,30.22,10.0,NE,8.1,-,0.02,Rain,Rain,40,2013-10-29 19:53:00
3:13 PM,35.6,32.0,87,30.21,10.0,NE,5.8,-,N/A,,Light Drizzle,40,2013-10-29 20:13:00
3:33 PM,35.6,32.0,87,30.20,10.0,NE,5.8,-,N/A,Rain,Light Rain,40,2013-10-29 20:33:00
3:53 PM,35.6,32.0,87,30.19,10.0,NE,6.9,-,N/A,Rain,Light Rain,50,2013-10-29 20:53:00
4:13 PM,35.6,32.0,87,30.18,10.0,NE,8.1,-,N/A,,Light Drizzle,50,2013-10-29 21:13:00
4:33 PM,35.6,32.0,87,30.17,10.0,ENE,6.9,-,N/A,,Light Drizzle,60,2013-10-29 21:33:00
4:53 PM,35.6,32.0,87,30.16,10.0,ENE,9.2,-,N/A,Rain,Light Rain,60,2013-10-29 21:53:00
5:13 PM,35.6,33.8,93,30.16,10.0,ENE,4.6,-,0.01,Rain,Light Rain,70,2013-10-29 22:13:00
5:33 PM,35.6,33.8,93,30.16,10.0,NE,4.6,-,0.01,,Light Drizzle,50,2013-10-29 22:33:00
5:53 PM,35.6,33.8,93,30.16,10.0,NE,5.8,-,0.01,,Overcast,40,2013-10-29 22:53:00
6:13 PM,35.6,33.8,93,30.15,10.0,NE,4.6,-,N/A,,Drizzle,40,2013-10-29 23:13:00
6:33 PM,35.6,33.8,93,30.14,10.0,NE,6.9,-,N/A,,Overcast,50,2013-10-29 23:33:00
6:53 PM,35.6,33.8,93,30.14,10.0,NE,5.8,-,N/A,,Overcast,40,2013-10-29 23:53:00
7:13 PM,35.6,33.8,93,30.15,10.0,NE,4.6,-,N/A,,Overcast,40,2013-10-30 00:13:00
7:33 PM,35.6,33.8,93,30.14,10.0,NE,5.8,-,N/A,,Overcast,40,2013-10-30 00:33:00
7:53 PM,35.6,33.8,93,30.14,10.0,NNE,3.5,-,N/A,,Overcast,30,2013-10-30 00:53:00
8:13 PM,35.6,33.8,93,30.14,10.0,NNE,4.6,-,N/A,,Overcast,30,2013-10-30 01:13:00
8:33 PM,35.6,33.8,93,30.14,10.0,North,5.8,-,N/A,,Light Drizzle,10,2013-10-30 01:33:00
8:53 PM,35.6,33.8,93,30.13,10.0,NNE,5.8,-,N/A,,Overcast,30,2013-10-30 01:53:00
9:12 PM,35.6,33.8,93,30.13,10.0,NNE,4.6,-,N/A,,Overcast,30,2013-10-30 02:12:00
9:33 PM,35.6,33.8,93,30.12,10.0,NE,4.6,-,N/A,,Overcast,40,2013-10-30 02:33:00
9:53 PM,35.6,33.8,93,30.13,10.0,NNE,3.5,-,N/A,,Overcast,20,2013-10-30 02:53:00
10:13 PM,35.6,33.8,93,30.13,10.0,NNE,4.6,-,N/A,,Overcast,20,2013-10-30 03:13:00
10:33 PM,35.6,33.8,93,30.13,10.0,NNE,3.5,-,N/A,,Overcast,30,2013-10-30 03:33:00
10:53 PM,35.6,33.8,93,30.12,10.0,Calm,Calm,-,N/A,,Light Drizzle,0,2013-10-30 03:53:00
11:13 PM,35.6,33.8,93,30.12,10.0,NE,4.6,-,N/A,,Overcast,40,2013-10-30 04:13:00
11:33 PM,35.6,33.8,93,30.11,10.0,NE,4.6,-,N/A,,Overcast,40,2013-10-30 04:33:00
11:53 PM,35.6,33.8,93,30.11,10.0,NNE,3.5,-,N/A,,Overcast,30,2013-10-30 04:53:00